This demonstration page uses our WeatherBlox Daily Observations layout. Learn more.

Left ArrowRight Arrow

47.50024, -111.30081

Hourly Observations for October 27, 2019

Temp ( °F °C ) Dew Point ( °F °C ) Humidity (%) Winds ( mph kmh ) Pressure ( in mb ) Visibility ( mi km ) Precip ( " mm )
12:53 am 00:53 Mostly Cloudy 18 -7.8 12 -11.1 77 77 NW 9 15 30.52 1033 9 14 0.00 0.00
1:53 am 01:53 Cloudy 19 -7.2 12 -11.1 74 74 NW 8 13 30.52 1034 10 16 0.00 0.00
2:53 am 02:53 Cloudy 20 -6.7 13 -10.6 74 74 NW 9 15 30.52 1034 10 16 0.00 0.00
3:53 am 03:53 Cloudy 20 -6.7 13 -10.6 74 74 W 8 13 30.52 1033 10 16 0.00 0.00
4:53 am 04:53 Cloudy 16 -8.9 11 -11.7 80 80 WSW 9 15 30.52 1034 10 16 0.00 0.00
5:53 am 05:53 Cloudy 20 -6.7 12 -11.1 71 71 NW 12 19 30.52 1033 10 16 0.00 0.00
6:53 am 06:53 Mostly Cloudy 19 -7.2 10 -12.2 68 68 NNW 15 24 30.53 1034 10 16 0.00 0.00
7:53 am 07:53 Mostly Cloudy with Haze 19 -7.2 11 -11.7 71 71 NNW 14 22 30.55 1035 6 10 0.00 0.00
8:53 am 08:53 Cloudy 19 -7.2 11 -11.7 71 71 WNW 10 17 30.55 1035 10 16 0.00 0.00
9:53 am 09:53 Cloudy 20 -6.7 9 -12.8 62 62 NNW 15 24 30.56 1035 10 16 0.00 0.00
10:53 am 10:53 Cloudy 22 -5.6 13 -10.6 68 68 WNW 9 15 30.55 1035 10 16 0.00 0.00
11:53 am 11:53 Mostly Cloudy 23 -5 13 -10.6 65 65 NW 15 24 30.52 1034 10 16 0.00 0.00
12:53 pm 12:53 Mostly Cloudy 26 -3.3 12 -11.1 55 55 W 15 24 30.49 1032 10 16 0.00 0.00
1:53 pm 13:53 Cloudy 26 -3.3 12 -11.1 55 55 WNW 13 20 30.46 1032 10 16 0.00 0.00
2:53 pm 14:53 Mostly Cloudy 26 -3.3 12 -11.1 55 55 WNW 16 26 30.44 1031 10 16 0.00 0.00
3:53 pm 15:53 Partly Cloudy 28 -2.2 15 -9.4 58 58 WNW 12 19 30.41 1030 10 16 0.00 0.00
4:53 pm 16:53 Cloudy 27 -2.8 16 -8.9 63 63 WSW 12 19 30.41 1030 10 16 0.00 0.00
5:53 pm 17:53 Sunny 22 -5.6 14 -10 71 71 SW 10 17 30.39 1029 10 16 0.00 0.00
6:53 pm 18:53 Mostly Cloudy 23 -5 13 -10.6 65 65 SSW 10 17 30.37 1029 10 16 0.00 0.00
7:53 pm 19:53 Mostly Cloudy 24 -4.4 14 -10 65 65 SSW 15 24 30.35 1028 10 16 0.00 0.00
8:53 pm 20:53 Cloudy 23 -5 14 -10 68 68 SSW 15 24 30.32 1027 10 16 0.00 0.00
9:53 pm 21:53 Partly Cloudy 22 -5.6 13 -10.6 68 68 SSW 15 24 30.31 1026 10 16 0.00 0.00
10:53 pm 22:53 Mostly Cloudy 22 -5.6 14 -10 71 71 SSW 14 22 30.28 1025 10 16 0.00 0.00
11:53 pm 23:53 Clear 21 -6.1 13 -10.6 71 71 SSW 14 22 30.25 1024 10 16 0.00 0.00

Powered by AerisWeather